Weather Roundup
Issued by NWS

Home | Current Version | Previous Version | Text Only | Print | Product List | Glossary On
Versions: 1 2 3 4 5 6 7 8 9 10 11 12 13 14 15 16 17 18 19 20 21 22 23 24 25 26 27 28 29 30 31 32 33 34 35 36 37 38 39 40 41 42 43 44 45 46 47 48 49 50
000
NZUS93 KARX 310059
HRRWXR

CURRENT HOURLY OBSERVATIONS ACROSS
MUCH OF THE UPPER MISSISSIPPI VALLEY
NATIONAL WEATHER SERVICE LA CROSSE WI
800 PM CDT MON MAY 30 2016


...SOUTHEAST MINNESOTA...


CITY           SKY/WX    TMP DP  RH WIND       PRES   REMARKS
ROCHESTER      CLOUDY    73  55  53 SE10      29.92S
ROCHESTER/MAYO FAIR      77  49  36 E9G16     29.92S
WINONA         CLEAR     77  52  41 SE6       29.93S
AUSTIN         CLOUDY    75  55  50 SE6       29.90F
ALBERT LEA     CLOUDY    79  57  47 S7        29.91R
DODGE CENTER   CLOUDY    79  54  41 S9        29.91F
PRESTON        CLOUDY    74  53  46 SE6       29.94S
OWATONNA       PTCLDY    79  57  47 E7        29.89F
FARIBAULT      CLOUDY    77  54  44 SE7       29.89S
$$

...ELSEWHERE IN MINNESOTA...


CITY           SKY/WX    TMP DP  RH WIND       PRES   REMARKS
MINNEAPOLIS    CLOUDY    80  50  34 SE12      29.88S
INTNL FALLS    CLOUDY    70  48  45 E6        29.93R
DULUTH         CLOUDY    69  49  48 E6        29.93S
RED WING       CLOUDY    77  52  41 SE6       29.90R
REDWOOD FALLS  CLEAR     81  55  40 SE14      29.80S
MANKATO        MOCLDY    79  55  44 SE12      29.86S
WORTHINGTON    CLEAR     79  56  45 S10       29.84R
FAIRMONT       CLEAR     77  55  47 SE12      29.85S
$$

...SOUTHWEST WISCONSIN...


CITY           SKY/WX    TMP DP  RH WIND       PRES   REMARKS
LA CROSSE      PTCLDY    77  53  43 S3        29.93R
PRAIRIE DU CHI CLOUDY    77  52  41 E3        29.92S
BOSCOBEL       PTCLDY    74  60  61 CALM      29.95R
LONE ROCK      NOT AVBL
PLATTEVILLE    CLEAR     78  51  39 E3        29.96S
FORT MC COY    CLOUDY    79  49  35 S3        29.95S
MAUSTON-NEW LI CLEAR     75  60  58 CALM      29.95F
VIROQUA        FAIR      75  49  39 SE6       29.97R
WIS DELLS      CLEAR     77  47  34 S6        29.97S
$$

...ELSEWHERE IN WISCONSIN...


CITY           SKY/WX    TMP DP  RH WIND       PRES   REMARKS
MILWAUKEE      PTCLDY    68  56  65 SE5       29.99S
MADISON        PTCLDY    74  48  39 CALM      29.97S
GREEN BAY      CLEAR     76  57  51 SW3       29.97R
EAU CLAIRE     NOT AVBL
BLACK RVR FLS  FAIR      74  57  56 CALM      29.94S
MEDFORD        CLEAR     73  55  53 CALM      29.98S
WAUSAU         CLEAR     75  52  44 CALM      29.96S
WIS RAPIDS     CLEAR     77  47  34 NE6       29.98S
MARSHFIELD     CLEAR     74  51  44 E5        29.96S
RICE LAKE      CLEAR     78  50  38 S6        29.94F
$$

...NORTHEAST IOWA...


CITY           SKY/WX    TMP DP  RH WIND       PRES   REMARKS
WATERLOO       CLOUDY    73  60  63 NW9G26    29.92R
DUBUQUE        CLEAR     73  55  53 E6        29.96R
DECORAH        CLOUDY    77  55  47 E5        29.93S
MASON CITY     LGT RAIN  66  62  87 SE8       29.95R
CHARLES CITY   CLOUDY    75  59  57 W14G21    29.94R
OELWEIN        CLOUDY    77  61  57 SE8       29.93R
$$

...ELSEWHERE IN IOWA...


CITY           SKY/WX    TMP DP  RH WIND       PRES   REMARKS
DES MOINES     CLOUDY    79  60  52 SW17G31   29.90R
IOWA CITY      CLOUDY    81  63  54 S14       29.93S
FORT DODGE     CLOUDY    66  57  72 SE12G17   29.89F
MARSHALLTOWN   CLOUDY    75  59  57 W5        29.90R
CEDAR RAPIDS   PTCLDY    80  64  58 S8        29.92R
$$

...NORTHERN ILLINOIS...


CITY           SKY/WX    TMP DP  RH WIND       PRES   REMARKS
CHICAGO-OHARE  MOCLDY    77  56  48 E9        29.96R
CHICAGO-MIDWAY CLOUDY    77  55  46 NE9       29.96R
MOLINE         PTCLDY    83  61  47 S3        29.93F
ROCKFORD       CLOUDY    80  50  34 NE5       29.98S
PEORIA         CLOUDY    79  62  56 SW5       29.96F
$$

NOTE: "FAIR" INDICATES FEW OR NO CLOUDS BELOW 12,000 FEET WITH NO
SIGNIFICANT WEATHER AND/OR OBSTRUCTIONS TO VISIBILITY. WIND
SPEEDS ARE IN MILES-PER-HOUR.




USA.gov is the U.S. government's official web portal to all federal, state and local government web resources and services.